Bedford, Massachusetts, United States (01730)
Lat: 42.49N, Lon: 71.28W
Wx Zone: MAZ005
Local Info
Past Weather Observations for Wednesday, April 22, 2015

NOTE: This archive is for the closest National Weather Service station to Bedford. Information may differ from the station used for current weather conditions.

Click here for Long-term Archive

Time Weather Temperature Dewpoint Humidity Pressure Winds Precip Visibility
23:56
Overcast
46°F / 8°C 39°F / 4°C 76% 29.53 in
(1000 mb)
SSW 16.1 mph
(SSW 26 kph)
0.00 in
(0.00 mm)
10SM
23:10
Overcast
48°F / 9°C 39°F / 4°C 71% 29.53 in
(1000 mb)
SSW 17.3 mph
(SSW 28 kph)
0.00 in
(0.00 mm)
10SM
22:56
Overcast
Light Rain
50°F / 10°C 45°F / 7°C 82% 29.53 in
(1000 mb)
SW 19.6 mph
(SW 32 kph)
0.00 in
(0.00 mm)
10SM
22:51
Mostly Cloudy
50°F / 10°C 45°F / 7°C 82% 29.53 in
(1000 mb)
SW 17.3 mph
(SW 28 kph)
- 10SM
21:56
Mostly Cloudy
50°F / 10°C 45°F / 7°C 82% 29.53 in
(1000 mb)
SW 12.7 mph
(SW 20 kph)
- 10SM
20:56
Overcast
50°F / 10°C 45°F / 7°C 82% 29.53 in
(1000 mb)
S 12.7 mph
(S 20 kph)
0.00 in
(0.00 mm)
10SM
19:56
Overcast
Light Rain
54°F / 12°C 43°F / 6°C 67% 29.56 in
(1001 mb)
S 16.1 mph
(S 26 kph)
0.00 in
(0.00 mm)
10SM
18:56
Overcast
57°F / 14°C 37°F / 3°C 48% 29.56 in
(1001 mb)
SSE 15 mph
(SSE 24 kph)
- 10SM
17:56
Overcast
61°F / 16°C 34°F / 1°C 36% 29.59 in
(1002 mb)
SW 19.6 mph
(SW 32 kph)
- 10SM
16:56
Overcast
63°F / 17°C 32°F / 0°C 32% 29.56 in
(1001 mb)
S 17.3 mph
(S 28 kph)
- 10SM
15:56
Partly Cloudy
64°F / 18°C 28°F / -2°C 26% 29.56 in
(1001 mb)
S 24.2 mph
(S 39 kph)
- 10SM
14:56
Mostly Cloudy
66°F / 19°C 37°F / 3°C 35% 29.56 in
(1001 mb)
S 19.6 mph
(S 32 kph)
- 10SM
13:56
Mostly Cloudy
64°F / 18°C 30°F / -1°C 28% 29.59 in
(1002 mb)
S 19.6 mph
(S 32 kph)
- 10SM
12:56
Partly Cloudy
68°F / 20°C 25°F / -4°C 20% 29.62 in
(1003 mb)
S 19.6 mph
(S 32 kph)
- 10SM
11:56
Partly Cloudy
68°F / 20°C 27°F / -3°C 21% 29.65 in
(1004 mb)
S 24.2 mph
(S 39 kph)
- 10SM
10:56
Partly Cloudy
64°F / 18°C 27°F / -3°C 24% 29.68 in
(1005 mb)
SW 15 mph
(SW 24 kph)
- 10SM
09:56
Partly Cloudy
64°F / 18°C 28°F / -2°C 26% 29.71 in
(1006 mb)
SW 16.1 mph
(SW 26 kph)
- 10SM
08:56
Clear
61°F / 16°C 34°F / 1°C 36% 29.74 in
(1007 mb)
Variable 4.6 mph
(Variable 7 kph)
- 10SM
07:56
Partly Cloudy
54°F / 12°C 34°F / 1°C 47% 29.77 in
(1008 mb)
SSW 5.8 mph
(SSW 9 kph)
- 10SM
06:56
Clear
48°F / 9°C 41°F / 5°C 76% 29.77 in
(1008 mb)
Calm - 10SM
05:56
Clear
36°F / 2°C 36°F / 2°C 100% 29.77 in
(1008 mb)
Calm - 10SM
05:43
Clear
Fog And Mist
36°F / 2°C 34°F / 1°C 93% 29.77 in
(1008 mb)
Calm - 3SM
05:34
Clear
Fog And Mist
36°F / 2°C 34°F / 1°C 93% 29.77 in
(1008 mb)
Calm - 1 3/4SM
04:56
Partly Cloudy
36°F / 2°C 34°F / 1°C 93% 29.77 in
(1008 mb)
Calm - 8SM
03:56
Clear
36°F / 2°C 34°F / 1°C 93% 29.74 in
(1007 mb)
Calm - 10SM
02:56
Clear
37°F / 3°C 36°F / 2°C 93% 29.77 in
(1008 mb)
Calm - 10SM
01:56
Clear
37°F / 3°C 36°F / 2°C 93% 29.77 in
(1008 mb)
Calm - 10SM
00:56
Clear
37°F / 3°C 36°F / 2°C 93% 29.77 in
(1008 mb)
SW 4.6 mph
(SW 7 kph)
- 10SM
Time Weather Temperature Dewpoint Humidity Pressure Winds Precip Visibility


Weather for websites

WeatherForYou.com, LLC is not responsible for any damages or problems caused by this service. Current weather conditions are obtained from the closest station including government and personal stations which may have varying degrees of accuracy. Weather forecasts are derived from the NOAA NDFD. Like all things, this site belongs to Jesus Christ... He just trusts us to maintain it. If you have any questions or comments email webmaster@weatherforyou.com

Copyright © 2015, WeatherForYou.com LLC. All rights reserved.